Airfield :
LOGIN :

Register | Disclaimer

   EN    FR    IT 

 










Legend :    VFR   Marginal VFR   IFR   Intensive IFR   Very Intensive IFR
Visi :
Ceiling :
>= 8 km
>= 3000ft
5 to 8 km
1000 to 3000 ft
1500m to 5 km
500 to 1000 ft
800 to 1500m
200 to 500 ft
< 800m
< 200 ft
Symbols :   Thunderstorms  Fog  Heavy snow  Heavy precipitations  Wind > 20 kt
SIGMETs :     Misc.  Thunderstorms  Icing  Turbulence  Mountain Waves  Volcanic Ashes






- Airport Elevation : 82 ft
- IATA code : ALG


DAAG - Alger Houari Boumedienne

CURRENT METAR :
  • 161230Z 35006KT CAVOK 25/11 Q1018

EXPIRED METARs :
  • 161200Z 34005KT 250V040 9999 FEW023 26/08 Q1018
  • 161130Z VRB03KT 9999 FEW023 25/07 Q1018
  • 161100Z VRB04KT 9999 FEW023 25/07 Q1018
  • 161030Z 23004KT 190V330 9999 FEW023 24/09 Q1019
  • 161000Z 25004KT 190V290 9999 FEW023 23/08 Q1019

TAF TAF DAAG
Valid from the 16 at 12:00 until the 17 at 12:00 UTC


161100Z 1612/1712 32008KT 9999 FEW026 SCT100
PROB40
TEMPO 1703/1710 FEW023TCU



MET'MAP, your aeronautical weather chart ! - Copyright ORBIFLY December 2007 - Disclaimer

ORBIFLY MET'MAP TEAM :

Programming & Development : Alexandra Zaïnal
Concept & original design : Baudouin d'Aumeries
Assistance for programming : Marc-Olivier Méhu
Technical & hardware support : Manuel Goepfert

Contact : metmap@orbifly.com




SOURCES & CREDITS :

   NOAA